QPF
0.00 0.00 0.00 0.00 0.00 0.00 0.00 0.00 0.00 0.00 0.00 0.00 0.00 0.00 0.00 0.00 0.00 0.00 0.00 0.00 0.01 0.03 0.03 0.01 0.01 0.06 0.10 0.10 0.04 0.02 0.06 0.12 0.08 0.09 0.10 0.01 0.00 0.00 0.01 0.00 0.00 0.00 0.00
0.00 0.00 0.00 0.00 0.00 0.00 0.00 0.00 0.00 0.00 0.00 0.00 0.00 0.00 0.00 0.00 0.00 0.02 0.01 0.00 0.01 0.05 0.08 0.04 0.02 0.05 0.07 0.08 0.03 0.00 0.00 0.01 0.05 0.08 0.05 0.00 0.00 0.00 0.00 0.00 0.00 0.00 0.00
0.00 0.00 0.00 0.00 0.00 0.00 0.00 0.00 0.00 0.00 0.00 0.00 0.00 0.00 0.00 0.02 0.05 0.11 0.17 0.16 0.13 0.14 0.08 0.02 0.04 0.05 0.02 0.01 0.01 0.00 0.00 0.01 0.02 0.02 0.00 0.00 0.01 0.04 0.00 0.00 0.00 0.01 0.02
0.00 0.00 0.00 0.00 0.00 0.00 0.00 0.00 0.00 0.00 0.00 0.00 0.00 0.00 0.02 0.05 0.05 0.07 0.21 0.39 0.37 0.46 0.26 0.08 0.02 0.01 0.00 0.01 0.00 0.02 0.02 0.00 0.00 0.00 0.00 0.00 0.00 0.03 0.01 0.00 0.01 0.01 0.00
0.00 0.00 0.00 0.00 0.00 0.00 0.00 0.00 0.00 0.00 0.00 0.00 0.00 0.00 0.05 0.01 0.00 0.02 0.19 0.32 0.30 0.64 0.59 0.24 0.04 0.01 0.01 0.00 0.00 0.03 0.02 0.01 0.00 0.00 0.00 0.00 0.00 0.00 0.00 0.00 0.01 0.00 0.00
0.00 0.00 0.00 0.00 0.00 0.00 0.00 0.00 0.00 0.00 0.00 0.00 0.00 0.01 0.01 0.00 0.00 0.00 0.03 0.07 0.14 0.97 0.55 0.38 0.19 0.04 0.00 0.00 0.00 0.01 0.01 0.02 0.01 0.02 0.01 0.00 0.00 0.00 0.00 0.00 0.00 0.00 0.00
0.00 0.00 0.00 0.00 0.00 0.00 0.00 0.00 0.00 0.00 0.00 0.00 0.00 0.00 0.00 0.00 0.00 0.00 0.00 0.00 0.01 0.21 0.19 0.12 0.17 0.01 0.00 0.00 0.00 0.00 0.06 0.10 0.04 0.00 0.00 0.00 0.01 0.04 0.00 0.00 0.00 0.00 0.00
0.00 0.00 0.00 0.00 0.00 0.00 0.00 0.00 0.00 0.00 0.00 0.00 0.00 0.00 0.00 0.00 0.00 0.00 0.00 0.00 0.00 0.02 0.04 0.03 0.09 0.05 0.01 0.00 0.01 0.01 0.09 0.10 0.03 0.00 0.00 0.00 0.02 0.02 0.00 0.00 0.00 0.00 0.00
0.00 0.00 0.00 0.00 0.00 0.00 0.00 0.00 0.00 0.00 0.00 0.00 0.00 0.00 0.00 0.00 0.00 0.00 0.00 0.00 0.00 0.00 0.01 0.04 0.09 0.14 0.09 0.06 0.05 0.01 0.04 0.02 0.01 0.01 0.00 0.00 0.04 0.02 0.00 0.00 0.00 0.00 0.00
0.00 0.00 0.00 0.00 0.00 0.00 0.00 0.00 0.00 0.00 0.00 0.00 0.00 0.00 0.00 0.00 0.00 0.00 0.00 0.00 0.00 0.00 0.09 0.09 0.12 0.23 0.20 0.18 0.12 0.04 0.01 0.03 0.03 0.01 0.00 0.00 0.01 0.00 0.00 0.00 0.00 0.00 0.00
0.00 0.00 0.00 0.00 0.00 0.00 0.00 0.00 0.00 0.00 0.00 0.00 0.00 0.00 0.00 0.00 0.00 0.00 0.00 0.00 0.00 0.03 0.12 0.05 0.03 0.11 0.28 0.17 0.06 0.12 0.05 0.00 0.01 0.00 0.00 0.00 0.00 0.00 0.00 0.00 0.00 0.00 0.00
0.00 0.00 0.00 0.00 0.00 0.00 0.00 0.00 0.00 0.00 0.00 0.00 0.00 0.00 0.00 0.00 0.00 0.00 0.00 0.00 0.01 0.05 0.07 0.00 0.00 0.01 0.08 0.13 0.09 0.04 0.00 0.00 0.01 0.00 0.00 0.00 0.00 0.00 0.00 0.00 0.00 0.00 0.00
0.00 0.00 0.00 0.00 0.00 0.00 0.00 0.00 0.00 0.00 0.00 0.00 0.00 0.00 0.00 0.00 0.00 0.00 0.00 0.01 0.02 0.01 0.00 0.00 0.00 0.00 0.01 0.08 0.13 0.02 0.00 0.00 0.00 0.00 0.00 0.00 0.00 0.00 0.00 0.00 0.00 0.00 0.00
0.00 0.00 0.00 0.00 0.00 0.00 0.00 0.00 0.00 0.00 0.00 0.00 0.00 0.00 0.00 0.00 0.00 0.01 0.00 0.07 0.01 0.00 0.00 0.00 0.00 0.00 0.00 0.05 0.11 0.03 0.06 0.07 0.02 0.00 0.00 0.00 0.00 0.00 0.00 0.00 0.00 0.00 0.00
0.00 0.00 0.00 0.00 0.00 0.00 0.00 0.00 0.00 0.00 0.00 0.00 0.00 0.00 0.00 0.00 0.00 0.00 0.04 0.06 0.00 0.00 0.00 0.00 0.00 0.00 0.00 0.03 0.06 0.05 0.07 0.08 0.01 0.00 0.00 0.00 0.00 0.00 0.00 0.00 0.00 0.00 0.00
0.00 0.00 0.00 0.00 0.00 0.00 0.00 0.00 0.00 0.00 0.00 0.00 0.00 0.00 0.00 0.00 0.00 0.00 0.01 0.01 0.00 0.01 0.01 0.01 0.00 0.01 0.01 0.02 0.12 0.08 0.07 0.05 0.00 0.00 0.00 0.00 0.00 0.00 0.00 0.00 0.00 0.00 0.00
0.00 0.00 0.00 0.00 0.00 0.00 0.00 0.00 0.00 0.00 0.00 0.00 0.00 0.00 0.00 0.00 0.00 0.00 0.01 0.00 0.01 0.01 0.01 0.01 0.00 0.02 0.12 0.20 0.10 0.01 0.03 0.00 0.00 0.00 0.00 0.00 0.00 0.00 0.00 0.00 0.00 0.00 0.00
0.00 0.00 0.00 0.00 0.00 0.00 0.00 0.00 0.00 0.00 0.00 0.00 0.00 0.00 0.00 0.00 0.00 0.00 0.00 0.01 0.02 0.03 0.03 0.02 0.00 0.00 0.03 0.11 0.15 0.08 0.03 0.00 0.00 0.00 0.00 0.00 0.00 0.00 0.00 0.00 0.00 0.00 0.00
0.00 0.00 0.00 0.00 0.00 0.00 0.00 0.00 0.00 0.00 0.00 0.00 0.00 0.00 0.00 0.00 0.00 0.00 0.00 0.00 0.00 0.01 0.01 0.00 0.00 0.00 0.02 0.07 0.08 0.05 0.01 0.00 0.00 0.00 0.00 0.00 0.00 0.00 0.00 0.00 0.00 0.00 0.00
0.00 0.00 0.00 0.00 0.00 0.00 0.00 0.00 0.00 0.00 0.00 0.00 0.00 0.00 0.00 0.00 0.00 0.00 0.00 0.00 0.00 0.00 0.00 0.00 0.00 0.00 0.00 0.04 0.11 0.05 0.00 0.00 0.00 0.00 0.00 0.00 0.00 0.00 0.00 0.00 0.00 0.00 0.00
0.00 0.00 0.00 0.00 0.00 0.00 0.00 0.00 0.00 0.00 0.00 0.00 0.00 0.00 0.00 0.00 0.00 0.00 0.00 0.00 0.00 0.00 0.00 0.00 0.00 0.00 0.00 0.01 0.07 0.10 0.03 0.00 0.00 0.00 0.00 0.00 0.00 0.00 0.00 0.00 0.00 0.00 0.00
0.00 0.00 0.00 0.00 0.00 0.00 0.00 0.00 0.00 0.00 0.00 0.00 0.00 0.00 0.00 0.00 0.00 0.00 0.00 0.00 0.00 0.01 0.00 0.00 0.00 0.00 0.00 0.00 0.01 0.06 0.07 0.01 0.00 0.00 0.00 0.00 0.00 0.00 0.00 0.00 0.00 0.00 0.00
0.00 0.00 0.00 0.00 0.00 0.00 0.00 0.00 0.00 0.00 0.00 0.00 0.00 0.00 0.00 0.00 0.00 0.00 0.00 0.00 0.00 0.01 0.00 0.00 0.00 0.00 0.00 0.00 0.00 0.02 0.01 0.01 0.00 0.00 0.00 0.00 0.00 0.00 0.00 0.00 0.00 0.00 0.00
0.00 0.00 0.00 0.00 0.00 0.00 0.00 0.00 0.00 0.00 0.00 0.00 0.00 0.00 0.00 0.00 0.00 0.00 0.01 0.00 0.00 0.00 0.00 0.00 0.00 0.01 0.05 0.06 0.04 0.06 0.00 0.00 0.00 0.00 0.00 0.00 0.00 0.00 0.00 0.00 0.00 0.00 0.00
0.00 0.00 0.00 0.00 0.00 0.00 0.00 0.00 0.00 0.00 0.00 0.00 0.00 0.00 0.00 0.00 0.00 0.00 0.00 0.01 0.00 0.00 0.00 0.00 0.00 0.00 0.01 0.02 0.02 0.04 0.01 0.00 0.00 0.00 0.00 0.00 0.00 0.00 0.00 0.00 0.00 0.00 0.00
0.00 0.00 0.00 0.00 0.00 0.00 0.00 0.00 0.00 0.00 0.00 0.00 0.00 0.00 0.00 0.00 0.00 0.00 0.00 0.00 0.01 0.00 0.00 0.00 0.00 0.01 0.03 0.05 0.03 0.04 0.03 0.01 0.00 0.00 0.00 0.00 0.00 0.00 0.00 0.00 0.00 0.00 0.00
MSLP
1007.79 1007.74 1007.76 1007.83 1008.32 1008.86 1009.31 1009.65 1009.89 1010.14 1010.41 1010.81 1011.15 1011.41 1011.61 1011.89 1012.07 1012.38 1012.65 1012.85 1013.22 1013.53 1013.79 1014.08 1014.42 1014.56 1014.79 1015.10 1015.07 1015.35 1015.59 1015.83 1015.86 1016.14 1016.28 1016.54 1016.51 1016.91 1017.60 1017.94 1018.06 1018.27 1018.25
1007.00 1007.71 1007.96 1007.76 1008.41 1009.04 1009.47 1009.73 1010.03 1010.38 1010.82 1011.07 1011.39 1011.51 1011.78 1012.08 1012.40 1012.72 1013.07 1013.26 1013.48 1013.82 1014.14 1014.35 1014.56 1014.81 1014.84 1015.21 1015.53 1015.81 1015.99 1016.27 1016.55 1016.78 1016.83 1016.82 1017.07 1017.53 1017.85 1018.22 1018.39 1018.61 1018.75
1006.96 1007.72 1007.98 1007.93 1008.44 1009.01 1009.42 1009.72 1010.04 1010.48 1010.81 1011.12 1011.47 1011.73 1011.99 1012.38 1012.67 1013.12 1013.50 1013.82 1013.90 1014.16 1014.37 1014.68 1014.78 1015.08 1015.36 1015.51 1015.85 1016.00 1016.23 1016.48 1016.89 1017.19 1017.29 1017.44 1017.85 1018.06 1018.33 1018.58 1018.82 1019.00 1019.26
1006.84 1007.56 1007.83 1008.05 1008.52 1008.93 1009.38 1009.75 1010.06 1010.44 1010.77 1011.15 1011.48 1011.83 1012.26 1012.69 1012.90 1013.27 1013.67 1014.17 1014.92 1015.78 1015.05 1014.94 1015.19 1015.33 1015.61 1016.00 1016.13 1016.22 1016.61 1016.78 1017.12 1017.29 1017.68 1017.97 1018.27 1018.55 1018.70 1018.94 1019.40 1019.48 1019.60
1006.88 1007.33 1007.74 1008.22 1008.63 1009.06 1009.35 1009.60 1009.94 1010.42 1010.80 1011.14 1011.56 1011.95 1012.35 1012.73 1012.99 1013.27 1013.35 1013.19 1015.07 1016.11 1016.03 1015.53 1015.50 1015.81 1015.97 1016.10 1016.41 1016.60 1016.74 1017.10 1017.30 1017.55 1018.06 1018.57 1018.72 1018.84 1019.08 1019.54 1019.63 1019.78 1020.00
1006.65 1007.18 1007.94 1008.49 1008.82 1009.18 1009.43 1009.66 1009.94 1010.29 1010.57 1010.88 1011.34 1011.89 1012.28 1012.61 1012.88 1013.31 1013.81 1013.74 1014.39 1015.49 1016.20 1016.03 1015.62 1016.09 1016.36 1016.24 1016.54 1016.94 1017.08 1017.41 1017.72 1018.02 1018.32 1018.66 1018.86 1019.11 1019.48 1019.73 1019.96 1020.15 1020.43
1006.71 1007.34 1008.04 1008.58 1008.96 1009.27 1009.55 1009.75 1009.99 1010.14 1010.40 1010.68 1011.19 1011.79 1012.25 1012.57 1013.04 1013.77 1014.15 1013.90 1014.18 1014.97 1015.89 1015.85 1015.81 1016.35 1016.44 1016.51 1016.74 1017.00 1017.41 1017.70 1018.00 1018.37 1018.59 1018.99 1019.21 1019.46 1019.70 1019.96 1020.28 1020.66 1020.97
1006.54 1007.31 1007.94 1008.58 1008.98 1009.27 1009.59 1009.76 1010.07 1010.20 1010.33 1010.59 1011.18 1011.80 1012.21 1012.60 1013.11 1013.82 1014.33 1014.23 1014.50 1015.06 1015.38 1015.64 1016.13 1016.31 1016.67 1016.83 1017.20 1017.38 1017.60 1017.92 1018.33 1018.66 1018.91 1019.38 1019.54 1019.65 1019.95 1020.28 1020.70 1021.09 1021.37
1006.42 1007.16 1007.69 1008.21 1008.80 1009.22 1009.58 1009.86 1010.13 1010.16 1010.32 1010.65 1011.22 1011.78 1012.22 1012.77 1013.23 1013.80 1014.36 1014.60 1014.82 1015.10 1015.42 1015.98 1016.33 1016.59 1016.73 1016.96 1017.27 1017.52 1017.65 1017.84 1018.32 1018.81 1019.10 1019.63 1019.70 1019.90 1020.26 1020.54 1021.06 1021.39 1021.64
1006.33 1006.92 1007.50 1007.92 1008.47 1009.10 1009.57 1009.89 1010.28 1010.44 1010.51 1010.68 1011.22 1011.81 1012.27 1012.79 1013.26 1013.81 1014.28 1014.66 1015.07 1015.22 1015.63 1015.94 1016.36 1016.51 1016.77 1017.32 1017.60 1017.81 1017.94 1018.06 1018.35 1019.00 1019.35 1019.77 1019.99 1020.15 1020.47 1020.79 1021.23 1021.61 1022.01
1006.36 1006.68 1007.18 1007.78 1008.19 1008.76 1009.32 1009.70 1010.21 1010.52 1010.73 1010.92 1011.23 1011.86 1012.38 1012.84 1013.13 1013.70 1014.29 1014.60 1015.06 1015.38 1015.53 1015.72 1016.11 1016.42 1016.94 1017.38 1017.77 1018.02 1018.10 1018.31 1018.53 1019.20 1019.59 1019.84 1020.21 1020.45 1020.78 1021.17 1021.56 1021.91 1022.23
1006.26 1006.44 1006.72 1007.43 1007.98 1008.35 1008.84 1009.43 1009.98 1010.35 1010.69 1011.07 1011.34 1011.76 1012.27 1012.85 1013.22 1013.39 1014.16 1014.67 1015.08 1015.39 1015.76 1015.98 1016.15 1016.54 1016.93 1017.40 1017.86 1018.11 1018.24 1018.48 1018.80 1019.45 1019.81 1019.90 1020.30 1020.65 1021.07 1021.35 1021.65 1022.12 1022.40
1005.52 1006.09 1006.34 1006.95 1007.53 1008.10 1008.40 1008.96 1009.59 1010.03 1010.42 1010.93 1011.41 1011.77 1012.02 1012.50 1013.02 1013.44 1014.02 1014.58 1014.93 1015.20 1015.97 1016.18 1016.59 1016.79 1017.01 1017.32 1017.81 1018.04 1018.18 1018.49 1018.91 1019.53 1019.80 1020.04 1020.43 1020.68 1021.20 1021.51 1021.74 1022.13 1022.60
1004.86 1005.06 1005.52 1006.17 1006.92 1007.53 1007.96 1008.51 1008.96 1009.52 1009.95 1010.47 1011.01 1011.46 1011.73 1012.21 1012.70 1013.15 1013.63 1014.29 1014.69 1015.10 1015.61 1016.01 1016.51 1016.70 1016.97 1017.17 1017.54 1017.79 1018.21 1018.69 1019.12 1019.64 1019.91 1020.13 1020.46 1020.68 1021.08 1021.60 1021.86 1022.14 1022.52
1003.94 1004.38 1004.53 1005.28 1006.01 1006.85 1007.49 1008.17 1008.62 1008.96 1009.38 1009.78 1010.46 1010.92 1011.30 1011.77 1012.31 1012.56 1013.32 1014.06 1014.36 1014.75 1015.27 1015.89 1016.30 1016.66 1016.84 1016.85 1017.20 1017.52 1018.12 1018.77 1019.15 1019.62 1019.92 1020.21 1020.38 1020.66 1021.12 1021.64 1021.86 1022.17 1022.54
1002.99 1003.43 1003.91 1004.55 1005.22 1005.97 1006.80 1007.54 1008.04 1008.51 1008.65 1009.11 1009.69 1010.30 1010.86 1011.31 1011.87 1012.28 1013.07 1013.69 1014.17 1014.38 1014.93 1015.49 1016.10 1016.35 1016.67 1016.66 1017.00 1017.31 1018.03 1018.57 1018.96 1019.49 1020.00 1020.30 1020.45 1020.68 1021.06 1021.52 1021.86 1022.14 1022.53
1002.11 1002.66 1003.33 1003.81 1004.63 1005.32 1006.01 1006.91 1007.52 1007.95 1008.14 1008.67 1009.03 1009.71 1010.36 1010.87 1011.43 1011.83 1012.59 1013.26 1013.71 1014.21 1014.70 1015.33 1015.87 1016.06 1016.43 1016.80 1017.14 1017.07 1017.87 1018.26 1018.81 1019.40 1020.00 1020.34 1020.64 1020.88 1021.12 1021.45 1021.78 1022.14 1022.49
1000.98 1001.85 1002.35 1002.98 1003.66 1004.46 1005.21 1006.00 1006.85 1007.46 1007.89 1008.41 1008.56 1009.12 1009.86 1010.51 1011.03 1011.43 1012.13 1012.73 1013.22 1013.95 1014.40 1015.05 1015.66 1016.00 1016.40 1016.96 1017.35 1017.17 1017.77 1018.11 1018.58 1019.31 1019.89 1020.23 1020.55 1020.87 1021.16 1021.53 1021.79 1022.13 1022.44
1000.14 1000.99 1001.43 1002.10 1002.90 1003.84 1004.72 1005.43 1006.09 1006.95 1007.56 1008.15 1008.45 1009.01 1009.55 1010.24 1010.77 1011.07 1011.68 1012.30 1012.75 1013.59 1014.27 1014.83 1015.46 1015.76 1016.36 1017.01 1017.42 1017.72 1017.85 1018.02 1018.49 1019.14 1019.86 1020.10 1020.56 1020.81 1021.17 1021.46 1021.77 1022.01 1022.39
999.33 999.87 1000.43 1001.21 1002.15 1003.13 1004.28 1005.20 1005.98 1006.63 1007.24 1007.81 1008.32 1008.70 1009.31 1009.95 1010.44 1010.97 1011.41 1012.03 1012.44 1013.28 1014.08 1014.72 1015.26 1015.75 1016.15 1016.70 1017.44 1017.67 1017.84 1017.82 1018.12 1018.88 1019.52 1019.87 1020.34 1020.77 1021.08 1021.52 1021.84 1021.98 1022.28
998.56 999.11 999.75 1000.63 1001.65 1002.68 1003.98 1004.87 1005.80 1006.23 1006.88 1007.56 1007.97 1008.38 1008.89 1009.50 1010.18 1010.60 1011.32 1011.81 1012.31 1012.78 1013.43 1014.21 1015.13 1015.54 1016.35 1016.63 1017.73 1017.88 1018.21 1017.57 1018.03 1018.48 1019.03 1019.60 1020.15 1020.53 1020.94 1021.34 1021.82 1022.08 1022.26
997.78 998.28 999.21 999.76 1000.72 1001.66 1002.68 1003.71 1004.70 1005.42 1006.25 1006.98 1007.55 1008.09 1008.33 1008.95 1009.64 1010.44 1010.93 1011.50 1012.02 1012.58 1013.14 1013.83 1014.38 1015.30 1015.99 1016.24 1016.87 1017.60 1018.27 1018.10 1017.79 1018.25 1018.68 1019.34 1019.78 1020.18 1020.69 1021.04 1021.46 1021.84 1022.11
997.48 998.09 998.53 999.21 1000.00 1000.90 1001.97 1003.34 1004.44 1005.52 1006.33 1006.94 1007.16 1007.69 1008.25 1008.64 1009.25 1009.93 1010.55 1011.10 1011.73 1012.12 1012.53 1013.11 1013.79 1014.27 1015.00 1015.97 1015.94 1016.21 1017.34 1017.61 1017.65 1018.07 1018.34 1018.83 1019.45 1019.95 1020.29 1020.70 1021.11 1021.39 1021.70
997.20 997.64 998.09 998.71 999.59 1000.46 1001.37 1002.52 1003.38 1004.29 1005.54 1006.09 1006.55 1007.26 1007.98 1008.61 1009.16 1009.38 1010.12 1010.66 1011.23 1011.74 1012.07 1012.49 1013.15 1013.67 1014.22 1014.90 1015.70 1015.66 1015.79 1016.21 1016.42 1017.61 1018.04 1018.45 1018.83 1019.43 1019.85 1020.24 1020.64 1020.92 1021.26
996.81 997.58 997.85 998.37 999.23 1000.00 1000.87 1001.73 1002.72 1003.70 1004.73 1005.41 1006.02 1006.88 1007.66 1008.21 1008.83 1009.26 1009.76 1010.29 1010.76 1011.35 1011.72 1012.13 1012.67 1013.16 1013.65 1013.95 1014.48 1015.13 1015.71 1015.73 1015.82 1016.35 1017.29 1018.12 1018.44 1018.84 1019.20 1019.46 1019.99 1020.49 1020.80
996.89 997.71 998.16 998.63 999.20 999.75 1000.52 1001.50 1002.28 1003.10 1004.10 1005.01 1005.78 1006.47 1007.27 1007.93 1008.47 1008.92 1009.56 1009.96 1010.38 1010.91 1011.35 1011.77 1012.21 1012.66 1013.03 1013.43 1013.70 1014.55 1014.75 1015.11 1015.21 1015.72 1016.51 1017.36 1017.83 1018.26 1018.70 1019.15 1019.60 1020.12 1020.24
Thickness
5777 5779 5778 5776 5771 5766 5762 5759 5756 5752 5749 5743 5739 5735 5731 5727 5725 5721 5717 5714 5709 5705 5704 5702 5700 5702 5702 5702 5705 5704 5703 5704 5706 5705 5704 5703 5703 5701 5696 5695 5696 5696 5697
5784 5776 5773 5774 5769 5763 5759 5756 5752 5748 5743 5739 5735 5732 5727 5722 5718 5714 5709 5705 5701 5698 5696 5694 5695 5695 5698 5697 5697 5696 5696 5696 5695 5695 5697 5698 5697 5694 5693 5692 5692 5691 5690
5781 5773 5770 5770 5766 5761 5757 5754 5750 5745 5741 5736 5732 5727 5723 5717 5712 5705 5699 5694 5688 5684 5686 5687 5688 5688 5689 5691 5690 5691 5693 5693 5691 5688 5690 5690 5687 5687 5687 5686 5686 5685 5684
5779 5771 5768 5766 5762 5758 5754 5751 5748 5743 5739 5734 5730 5725 5717 5710 5707 5701 5695 5686 5674 5667 5669 5676 5679 5681 5684 5684 5684 5687 5687 5687 5685 5685 5683 5682 5681 5680 5681 5681 5678 5678 5679
5776 5771 5766 5762 5758 5754 5751 5749 5746 5740 5735 5731 5726 5720 5713 5708 5703 5697 5695 5694 5678 5666 5662 5664 5672 5674 5678 5678 5679 5681 5684 5682 5681 5681 5678 5675 5675 5676 5676 5673 5675 5675 5674
5776 5770 5762 5756 5753 5749 5746 5744 5741 5738 5734 5730 5724 5717 5711 5706 5701 5694 5689 5690 5685 5670 5661 5664 5666 5669 5670 5672 5674 5674 5677 5676 5676 5675 5674 5674 5674 5673 5671 5671 5670 5670 5669
5771 5766 5758 5752 5748 5745 5742 5740 5737 5735 5732 5728 5722 5715 5708 5703 5697 5689 5683 5687 5682 5675 5668 5668 5669 5664 5666 5669 5670 5671 5670 5671 5671 5670 5672 5670 5669 5668 5668 5668 5666 5664 5663
5768 5762 5756 5749 5745 5742 5739 5737 5734 5731 5729 5726 5719 5712 5706 5700 5694 5685 5680 5681 5680 5676 5673 5669 5665 5664 5663 5663 5663 5665 5665 5667 5666 5665 5666 5664 5664 5666 5665 5664 5661 5659 5658
5766 5759 5755 5749 5743 5739 5736 5733 5730 5728 5726 5722 5717 5710 5703 5697 5691 5683 5677 5675 5673 5672 5670 5667 5663 5660 5661 5660 5662 5661 5664 5665 5664 5660 5661 5660 5661 5662 5660 5660 5656 5655 5654
5762 5757 5753 5749 5743 5737 5734 5730 5726 5724 5722 5719 5714 5707 5702 5694 5689 5681 5674 5670 5667 5667 5663 5662 5659 5660 5659 5657 5656 5656 5658 5661 5661 5657 5658 5657 5657 5658 5657 5655 5653 5651 5648
5756 5754 5751 5747 5743 5738 5733 5729 5724 5720 5718 5714 5710 5705 5698 5692 5687 5680 5673 5670 5666 5664 5664 5663 5661 5659 5656 5654 5653 5654 5654 5656 5657 5652 5652 5653 5651 5651 5651 5650 5648 5646 5644
5750 5750 5751 5745 5742 5738 5733 5729 5723 5719 5716 5711 5706 5702 5697 5689 5685 5680 5673 5668 5663 5662 5660 5658 5658 5655 5653 5651 5651 5650 5652 5651 5652 5646 5647 5650 5647 5647 5645 5645 5644 5641 5640
5751 5749 5749 5744 5741 5738 5736 5730 5723 5719 5715 5709 5703 5699 5696 5689 5685 5677 5671 5667 5663 5662 5654 5654 5651 5649 5649 5649 5648 5648 5649 5649 5647 5642 5643 5645 5643 5644 5642 5641 5641 5639 5636
5749 5752 5751 5747 5741 5737 5734 5730 5726 5721 5715 5710 5704 5698 5694 5689 5685 5678 5670 5665 5663 5657 5655 5651 5648 5647 5645 5647 5646 5646 5645 5642 5640 5638 5639 5641 5641 5641 5640 5638 5637 5636 5633
5747 5751 5753 5748 5744 5738 5733 5729 5725 5722 5718 5712 5704 5699 5693 5690 5686 5679 5670 5662 5660 5657 5654 5649 5646 5645 5645 5646 5645 5645 5641 5637 5635 5636 5637 5638 5638 5638 5637 5634 5634 5632 5629
5746 5750 5752 5749 5743 5740 5734 5727 5724 5722 5719 5713 5707 5701 5693 5689 5686 5681 5672 5663 5660 5657 5653 5649 5644 5644 5642 5644 5643 5643 5638 5635 5634 5635 5632 5634 5635 5635 5634 5632 5630 5629 5627
5744 5744 5746 5749 5744 5738 5735 5727 5722 5721 5717 5713 5709 5702 5695 5689 5685 5682 5673 5666 5660 5656 5651 5646 5642 5642 5641 5638 5638 5641 5636 5635 5634 5633 5629 5630 5630 5630 5630 5628 5627 5625 5624
5747 5743 5741 5747 5744 5739 5735 5728 5722 5719 5715 5710 5709 5703 5695 5687 5683 5680 5673 5669 5662 5655 5652 5647 5643 5641 5638 5635 5632 5635 5634 5633 5632 5629 5626 5627 5628 5627 5626 5625 5624 5622 5620
5746 5743 5742 5741 5742 5736 5731 5727 5722 5716 5712 5707 5703 5699 5693 5685 5681 5679 5674 5668 5663 5656 5650 5646 5641 5640 5636 5632 5630 5627 5628 5632 5629 5625 5622 5625 5624 5624 5623 5621 5620 5619 5617
5744 5743 5745 5740 5739 5736 5726 5721 5715 5711 5708 5704 5699 5696 5691 5684 5680 5675 5672 5667 5662 5655 5648 5643 5639 5636 5634 5631 5626 5623 5623 5629 5629 5625 5620 5622 5621 5620 5619 5617 5616 5616 5614
5737 5738 5739 5735 5733 5730 5720 5713 5708 5705 5702 5699 5697 5692 5689 5683 5677 5674 5668 5664 5660 5656 5650 5643 5636 5633 5627 5626 5618 5616 5616 5625 5625 5623 5619 5618 5617 5617 5616 5614 5612 5611 5610
5733 5734 5734 5734 5731 5729 5723 5717 5711 5706 5701 5695 5693 5690 5687 5682 5677 5670 5667 5662 5658 5653 5647 5641 5636 5628 5624 5624 5619 5612 5606 5613 5620 5621 5619 5615 5615 5614 5613 5611 5609 5608 5607
5725 5728 5730 5731 5729 5726 5721 5711 5705 5698 5693 5688 5689 5685 5681 5678 5674 5668 5665 5660 5655 5652 5646 5640 5635 5632 5625 5618 5620 5615 5603 5606 5614 5615 5615 5614 5611 5610 5610 5608 5606 5606 5605
5718 5724 5724 5726 5724 5719 5715 5709 5705 5699 5689 5687 5685 5681 5676 5673 5669 5666 5661 5658 5652 5648 5645 5639 5634 5630 5625 5620 5614 5616 5617 5616 5615 5606 5610 5610 5610 5609 5607 5606 5604 5603 5602
5712 5710 5717 5719 5718 5713 5709 5708 5701 5694 5688 5686 5682 5675 5671 5668 5664 5662 5657 5654 5650 5644 5641 5636 5631 5627 5623 5621 5618 5612 5609 5612 5615 5614 5606 5605 5606 5607 5605 5604 5601 5598 5597
5701 5701 5703 5706 5707 5708 5704 5700 5696 5691 5685 5680 5676 5671 5666 5662 5660 5657 5652 5650 5646 5641 5636 5632 5627 5624 5621 5618 5616 5611 5609 5608 5612 5611 5606 5603 5605 5604 5603 5600 5597 5594 5595